Location: Cogollal
(10.0582°N, 67.8466°W)
Time: 02:46:09
(UTC+00:00)

Cosmos 2266 Rocket - Pass Details

Date: 14 April 2024
Orbit: 934 x 1007 km, 82.9° (Epoch: 19 May)

Event Time Altitude Azimuth Distance (km) Brightness Sun altitude
Exits shadow 08:34:29 38° 188° (S) 1,436 4.6 -26.5°
Maximum altitude 08:37:04 85° 272° (W) 965 3.8 -25.8°
Drops below altitude 10° 08:43:09 10° 2° (N) 2,661 6.5 -24.4°
Sets 08:45:37 0° 3° (N) 3,598 7.2 -23.8°
